Weather History for Fort Myers Airport, FL

Change the Weather History Date:

Saturday, November 17, 2012

  Actual Average Record
Temperature  
Mean Temperature 70 °F -  
Max Temperature 80 °F 81 °F 91 °F (1988)
Min Temperature 60 °F 61 °F 34 °F (1940)
Cooling Degree Days 5    
Growing Degree Days 20 (Base 50)    
Moisture  
Dew Point 60 °F    
Average Humidity 76    
Maximum Humidity 94    
Minimum Humidity 48    
Precipitation  
Precipitation 0.00 in - - ()
Sea Level Pressure  
Sea Level Pressure 30.08 in    
Wind  
Wind Speed 8 mph (NE)    
Max Wind Speed 14 mph    
Max Gust Speed 21 mph    
Visibility 9 miles    
Events      
Averages and records for this station are not official NWS values.
T = Trace of Precipitation, MM = Missing Value Source: NWS Daily Summary

Daily Weather History Graph

Daily Weather History Graph

Search for Another Location

Airport:

Trip Planner

Search our weather history database for the weather conditions in past years. The results will help you decide how hot, cold, wet, or windy it might be!

Date:

Astronomy

Nov. 17, 2012 Rise Set
Actual Time 6:47 AM EST 5:35 PM EST
Civil Twilight 6:23 AM EST 6:00 PM EST
Nautical Twilight 5:55 AM EST 6:28 PM EST
Astronomical Twilight 5:27 AM EST 6:56 PM EST
Moon 10:31 AM EST (11/17) 9:42 PM EST (11/17)
Length of Visible Light 11h 37m
Length of Day
10h 47m
Waxing Crescent, 20% of the Moon is Illuminated
Nov 17
Waxing Crescent
Nov 20
First Quarter
Nov 28
Full
Dec 6
Last Quarter
Dec 13
New

Hourly Weather History & Observations

Time (EST) Temp. Heat Index Dew Point Humidity Pressure Visibility Wind Dir Wind Speed Gust Speed Precip Events Conditions
12:53 AM 61.0 °F - 57.0 °F 87% 30.08 in 10.0 mi NNE 5.8 mph - N/A   Clear
1:53 AM 61.0 °F - 57.9 °F 90% 30.07 in 10.0 mi NNE 5.8 mph - N/A   Mostly Cloudy
2:53 AM 60.1 °F - 57.9 °F 93% 30.06 in 9.0 mi North 5.8 mph - N/A   Clear
3:12 AM 60.8 °F - 57.2 °F 88% 30.07 in 9.0 mi NNE 8.1 mph - N/A   Partly Cloudy
3:29 AM 60.8 °F - 57.2 °F 88% 30.07 in 8.0 mi NNE 6.9 mph - N/A   Mostly Cloudy
3:53 AM 61.0 °F - 57.9 °F 90% 30.06 in 8.0 mi NNE 6.9 mph - N/A   Overcast
4:53 AM 61.0 °F - 59.0 °F 93% 30.08 in 7.0 mi NNE 8.1 mph - N/A   Overcast
5:22 AM 62.6 °F - 59.0 °F 88% 30.09 in 7.0 mi NNE 4.6 mph - N/A   Overcast
5:53 AM 62.1 °F - 60.1 °F 93% 30.09 in 7.0 mi NE 9.2 mph - N/A   Overcast
6:53 AM 63.0 °F - 60.1 °F 90% 30.10 in 7.0 mi NE 8.1 mph - N/A   Overcast
7:10 AM 62.6 °F - 60.8 °F 94% 30.11 in 6.0 mi NE 10.4 mph - N/A   Overcast
7:53 AM 64.4 °F - 60.8 °F 88% 30.12 in 8.0 mi NE 11.5 mph - N/A   Overcast
8:49 AM 68.0 °F - 60.8 °F 78% 30.12 in 10.0 mi NE 11.5 mph - N/A   Scattered Clouds
8:53 AM 68.0 °F - 61.0 °F 78% 30.12 in 10.0 mi NE 10.4 mph - N/A   Partly Cloudy
9:53 AM 72.0 °F - 60.1 °F 66% 30.12 in 10.0 mi ENE 12.7 mph - N/A   Clear
10:53 AM 77.0 °F - 61.0 °F 58% 30.10 in 10.0 mi East 13.8 mph - N/A   Clear
11:53 AM 77.0 °F - 61.0 °F 58% 30.08 in 10.0 mi East 11.5 mph - N/A   Partly Cloudy
12:53 PM 79.0 °F - 61.0 °F 54% 30.06 in 10.0 mi East 10.4 mph 20.7 mph N/A   Clear
1:53 PM 79.0 °F - 59.0 °F 50% 30.04 in 10.0 mi East 12.7 mph - N/A   Clear
2:53 PM 80.1 °F 80.9 °F 60.1 °F 50% 30.03 in 10.0 mi East 10.4 mph - N/A   Partly Cloudy
3:53 PM 80.1 °F 80.7 °F 59.0 °F 48% 30.03 in 10.0 mi NE 9.2 mph - N/A   Clear
4:53 PM 78.1 °F - 59.0 °F 52% 30.04 in 10.0 mi ENE 12.7 mph - N/A   Partly Cloudy
5:53 PM 73.9 °F - 60.1 °F 62% 30.05 in 10.0 mi ENE 6.9 mph - N/A   Partly Cloudy
6:53 PM 72.0 °F - 60.1 °F 66% 30.06 in 10.0 mi NE 11.5 mph - N/A   Scattered Clouds
7:53 PM 70.0 °F - 61.0 °F 73% 30.09 in 10.0 mi NE 10.4 mph - N/A   Scattered Clouds
8:53 PM 68.0 °F - 61.0 °F 78% 30.10 in 10.0 mi NE 9.2 mph - N/A   Clear
9:53 PM 66.9 °F - 61.0 °F 81% 30.10 in 10.0 mi ENE 10.4 mph - N/A   Clear
10:53 PM 66.9 °F - 60.1 °F 79% 30.10 in 10.0 mi NNE 11.5 mph 19.6 mph N/A   Clear
11:53 PM 66.0 °F - 61.0 °F 84% 30.09 in 10.0 mi NE 10.4 mph - N/A   Clear